User: anonymous   Login
Location: Darlington Observatory
(36.4817°N, 105.8156°W)
Time: 20:41:42
(UTC-06:00)
Language:

MOS 1 - Orbit

View from above orbital plane
View from above orbital plane
View from above satellite
View from above satellite

Ground track
Ground track

The orbit data is extracted from the following two-line orbital elements,

1 17527U 87018A   18173.57595892 -.00000015 +00000-0 +20077-4 0  9993
2 17527 099.2440 198.7495 0008451 000.2427 113.2148 14.02515530601168
Epoch (UTC): 22 June 2018 13:49:22
Eccentricity: 0.0008451
inclination: 99.2440°
perigee height: 879 km
apogee height: 891 km
right ascension of ascending node: 198.7495°
argument of perigee: 0.2427°
revolutions per day: 14.02515530
mean anomaly at epoch: 113.2148°
orbit number at epoch: 60116

The dashed part of the orbit path shows where the satellite is in the earth's shadow,  

DLR